Regional Weather Roundup
Issued by NWS

Home | Current Version | Previous Version | Graphics & Text | Print | Product List | Glossary On
Versions: 1 2 3 4 5 6 7 8 9 10 11 12 13 14 15 16 17 18 19 20 21 22 23 24 25 26 27
000
ASUS45 KBOU 261707
RWRCO

WEATHER ROUNDUP FOR COLORADO
NATIONAL WEATHER SERVICE DENVER/BOULDER CO
1100 AM MDT TUE JUL 26 2016

NOTE: "FAIR" INDICATES FEW OR NO CLOUDS BELOW 12000 FEET WITH NO
SIGNIFICANT WEATHER AND/OR OBSTRUCTIONS TO VISIBILITY.

COZ001>005-013-030-031-261800-
...NORTHWEST COLORADO...

CITY           SKY/WX    TMP DP  RH WIND       PRES   REMARKS
CRAIG          FAIR      84  38  19 SE3       30.27F
HAYDEN         FAIR      79  37  22 E5        30.30F
MEEKER         FAIR      81  46  29 CALM      30.29F
MOUNT WERNER   NOT AVBL
STEAMBOAT SPGS FAIR      73  43  35 CALM      30.33F
WALDEN         FAIR      73  34  23 W6        30.42S
$$

COZ006>008-011-261800-
...WEST CENTRAL VALLEYS...

CITY           SKY/WX    TMP DP  RH WIND       PRES   REMARKS
GRAND JUNCTION FAIR      86  43  22 SE9       30.18S
MONTROSE       FAIR      78  45  30 CALM      30.28S
EAGLE          SUNNY     72  41  33 CALM      30.36F
RIFLE          FAIR      78  44  29 CALM      30.25S
DELTA          FAIR      85  44  24 SE5       30.23S
NUCLA          FAIR     N/A N/A N/A E5        30.32S
$$

COZ017>023-064>068-261800-
...SOUTHWEST COLORADO...

CITY           SKY/WX    TMP DP  RH WIND       PRES   REMARKS
DURANGO        FAIR      75  48  38 CALM      30.33F
CORTEZ         FAIR      80  49  33 VRB5      30.28S
PAGOSA SPRINGS FAIR      74  43  32 NW6       30.41F
TELLURIDE      FAIR      69  40  34 W7        30.54S
WOLF CREEK PAS PTSUNNY   57  41  54 NE6       30.75S
$$

COZ009-010-012-014-032>034-037-058>063-261800-
...CENTRAL COLORADO...

CITY           SKY/WX    TMP DP  RH WIND       PRES   REMARKS
ASPEN          PTSUNNY   71  46  40 VRB6      30.41S
BUENA VISTA    FAIR      74  38  27 NE5       30.40F
COPPER MTN     CLOUDY    61  28  29 NW13      30.75S
BERTHOUD PASS  CLOUDY    50  36  57 N13G26    30.78R
COTTONWOOD PAS CLOUDY    72  36  26 CALM      30.57S
GUNNISON       FAIR      64  45  48 SW3       30.46S
KREMMLING      FAIR      68  39  34 E5        30.42S
LEADVILLE      PTSUNNY   64  37  36 SW3       30.56S
MONARCH PASS   CLOUDY    59  37  44 MISG      30.84R
SALIDA         FAIR      78  43  28 N5        30.44F
SUNLIGHT       FAIR      63  41  45 MISG      30.68R
WILKERSON PASS CLOUDY    63  30  29 NW3       30.70S
$$

COZ069>075-261800-
...SAN LUIS VALLEY/SANGRE DE CRISTO MOUNTAINS...

CITY           SKY/WX    TMP DP  RH WIND       PRES   REMARKS
ALAMOSA        FAIR      72  49  44 VRB3      30.39F
LA VETA PASS   FAIR      68  43  40 CALM      30.58S
SAGUACHE       FAIR      73  46  38 S6        30.42S
$$

COZ035-036-038>040-261800-
...NORTHERN COLORADO FRONT RANGE...

CITY           SKY/WX    TMP DP  RH WIND       PRES   REMARKS
DENVER INTL AP PTSUNNY   89  45  21 NE6       30.16S
DMNS CITY PARK   N/A     89  44  21 E3        30.15S
AURORA         PTSUNNY   88  41  19 VRB3      30.19R
FRONT RANGE AP PTSUNNY   88  45  22 NE7       30.18S
ERIE MUNI ARPT FAIR      85  49  28 CALM      30.14F
BOULDER MUN AP FAIR      81  52  36 CALM      30.15F
CENTENNIAL     CLOUDY    86  33  15 CALM      30.20S
BROOMFIELD     PTSUNNY   86  46  25 E5        30.19S
LONGMONT       FAIR      80  55  42 CALM      30.16S
$$

COZ041-046-047-076>085-087-088-261800-
...PIKES PEAK/PALMER DIVIDE AND SOUTHERN FOOTHILLS...

CITY           SKY/WX    TMP DP  RH WIND       PRES   REMARKS
COLO. SPRINGS  PTSUNNY   80  50  34 CALM      30.26F
A. F. ACADEMY  PTSUNNY   77  51  40 S5        30.27F
SCHRIEVER AFB  NOT AVBL
ELLICOTT       FAIR     N/A N/A N/A S6        30.24F
FALCON         NOT AVBL
FORT CARSON    FAIR      78  51  37 E3        30.23F
LIMON          NOT AVBL
MONUMENT HILL  FAIR      82  37  20 CALM      30.32S
TRINIDAD       NOT AVBL
$$

COZ042>045-048>051-090-091-261800-
...NORTHEAST COLORADO...

CITY           SKY/WX    TMP DP  RH WIND       PRES   REMARKS
GREELEY ARPT   FAIR      77  57  50 NW6       30.14S
AKRON          FAIR      84  57  39 SW10      30.12S
BURLINGTON     FAIR      81  64  56 S15       30.14F
WRAY           NOT AVBL
STERLING       FAIR      84  61  45 S10       30.07F
HOLYOKE        FAIR      81  64  57 W16       30.09S
FORT MORGAN    FAIR      83  53  36 W5        30.12F
$$

COZ086-089-092>099-261800-
...SOUTHEAST COLORADO...

CITY           SKY/WX    TMP DP  RH WIND       PRES   REMARKS
PUEBLO         FAIR      79  57  46 VRB3      30.15F
LA JUNTA       FAIR      85  58  39 VRB3      30.12F
LAMAR          FAIR      88  63  43 VRB5      30.08F
SPRINGFIELD      N/A     85  60  42 S10       30.15F
$$




USA.gov is the U.S. government's official web portal to all federal, state and local government web resources and services.